Regional Weather Roundup
Issued by NWS

Home | Current Version | Previous Version | Graphics & Text | Print | Product List | Glossary On
Versions: 1 2 3 4 5 6 7 8 9 10 11 12 13 14 15 16 17 18 19 20 21 22 23 24 25 26 27 28 29 30 31 32 33 34 35 36 37 38 39 40 41 42 43 44 45 46 47 48 49 50
000
ASUS43 KLOT 302008
RWRIL

ILLINOIS REGIONAL WEATHER ROUNDUP
NATIONAL WEATHER SERVICE CHICAGO/ROMEOVILLE IL
300 PM CDT MON MAR 30 2015

NOTE: "FAIR" INDICATES FEW OR NO CLOUDS BELOW 12,000 FEET WITH NO
SIGNIFICANT WEATHER AND/OR OBSTRUCTIONS TO VISIBILITY.

* THESE STATIONS ARE NOT UNDER NWS QUALITY CONTROL. THEY ALSO MAY NOT
  REPORT WEATHER SUCH AS PRECIPITATION OR FOG.

ILZ001-002-007-009-015-016-024-302100-
NORTHWEST ILLINOIS

CITY           SKY/WX    TMP DP  RH WIND       PRES   REMARKS
MOLINE         FAIR      70  27  20 W16G23    29.95F
STERLING*      FAIR      70  34  26 NW18G24   29.95F
SAVANNA*       FAIR      68  26  20 W14G21    29.93F
$$

ILZ003-004-008-010-011-017-018-302100-
NORTH CENTRAL ILLINOIS

CITY           SKY/WX    TMP DP  RH WIND       PRES   REMARKS
ROCKFORD       CLOUDY    64  29  26 W14       29.95F
FREEPORT*      PTSUNNY   62  30  29 W10G17    29.95F
ROCHELLE*      FAIR      63  32  31 W16G22    29.95F
DE KALB*       FAIR      61  32  34 W17       29.96F
PERU*          FAIR      65  30  27 W16G23    29.97F
$$

ILZ005-006-012>014-019>023-302100-
NORTHEAST ILLINOIS

CITY           SKY/WX    TMP DP  RH WIND       PRES   REMARKS
CHICAGO-OHARE  CLOUDY    60  31  33 W14G21    29.97F
CHICAGO-MIDWAY CLOUDY    64  30  27 W17       29.98F
AURORA         FAIR      63  31  30 W20       29.97F
LANSING*       FAIR      60  25  25 W16G25    29.99F
JOLIET*        FAIR      64  31  28 W15       29.98F
WAUKEGAN       PTSUNNY   60  29  30 W15G25    29.95F
DUPAGE AIRPORT FAIR      61  30  31 W16G28    29.97F
KANKAKEE*      FAIR      61  35  37 W16G22    30.01F
WHEELING       FAIR      59  28  30 W14G22    29.98F
MORRIS*        FAIR      63  29  28 W21       29.97F
ROMEOVILLE*    FAIR      63  30  29 W22G29    29.98F
NORTHERLY ISL    N/A     59  25  27 SW13        N/A
$$

LMZ740>746-302100-
SOUTHERN LAKE MICHIGAN

STATION/POSITION SKY/WX   TEMP    WIND        PRES    VSBY  WAVE
                          AIR SEA DIR/SP/G                  HT/PER
                          (F)     (DEG/KT/KT) (MB)    (MI)  (FT/S)
HARRISON CRIB              55     260/ 12/ 17   N/A
BURNHAM HARBOR             59     280/ 16       N/A
CALUMET HARBOR             59     230/  7/ 15 1014.5F
BURNS HARBOR               56     220/  1/  2 1016.9F
MICHIGAN CITY              51     210/  4/  4   N/A
$$

ILZ025>027-034>036-040-047-049-050-058-095>099-302100-
WEST-CENTRAL ILLINOIS

CITY           SKY/WX    TMP DP  RH WIND       PRES   REMARKS
QUINCY         FAIR      68  28  22 SW16G23   30.04F
GALESBURG*     FAIR      68  31  25 W9G20     29.99F
MACOMB*        FAIR      68  29  23 W14G22    30.03F
JACKSONVILLE*  FAIR      69  29  23 SW7       30.05F
PITTSFIELD*    FAIR      67  30  25 SW9       30.07F
$$

ILZ028>032-037-038-041>044-048-051>054-059>061-302100-
CENTRAL ILLINOIS

CITY           SKY/WX    TMP DP  RH WIND       PRES   REMARKS
PONTIAC        FAIR      65  33  31 W21G26    30.01F
BLOOMINGTON    FAIR      64  29  27 W13G22    30.04F
DECATUR        FAIR      66  28  24 W15       30.06F
PEORIA         FAIR      68  26  20 W8        30.01F
LACON*         FAIR      66  27  22 W14G21    29.98F
LINCOLN*       FAIR      69  29  22 W9G16     30.03F
SPRINGFIELD    FAIR      68  29  23 W18       30.06F
TAYLORVILLE    FAIR      63  34  34 W12G18    30.08F
$$

ILZ033-039-045-046-055>057-062-063-302100-
EAST-CENTRAL ILLINOIS

CITY           SKY/WX    TMP DP  RH WIND       PRES   REMARKS
CHAMPAIGN      FAIR      64  31  28 W14       30.06F
DANVILLE*      FAIR      60  34  37 W18       30.03F
RANTOUL*       FAIR      65  32  29 W16       30.05F
MATTOON        FAIR      62  31  31 W8        30.08F
PARIS*         FAIR      62  37  38 W10       30.08F
$$

ILZ079-100>102-302100-
SOUTHWEST ILLINOIS

CITY           SKY/WX    TMP DP  RH WIND       PRES   REMARKS
ALTON          SUNNY     66  18  15 SW12      30.10F
BELLEVILLE     SUNNY     68  30  24 S1        30.11F
CAHOKIA*       FAIR      67  27  22 MISG      30.11F
SPARTA*        FAIR      64  31  29 CALM      30.13F
$$

ILZ064>066-069>071-074>076-080>082-084>086-088>090-092>094-302100-
SOUTH-CENTRAL ILLINOIS

CITY           SKY/WX    TMP DP  RH WIND       PRES   REMARKS
CARBONDALE     FAIR      64  28  25 CALM      30.13F
CAIRO*         FAIR      64  35  34 S8        30.17F
EFFINGHAM*     FAIR      64  23  20 SW7G17    30.11F
MARION         SUNNY     64  28  25 W6        30.14F
MT. VERNON     FAIR      64  27  24 W3        30.13F
CENTRALIA*     FAIR      63  29  27 SW3       30.12F
SALEM*         FAIR      65  27  23 W9        30.13F
METROPOLIS*    FAIR      66  31  26 SW8       30.15F
$$

ILZ067-068-072-073-078-083-087-091-302100-
SOUTHEAST ILLINOIS

CITY           SKY/WX    TMP DP  RH WIND       PRES   REMARKS
LAWRENCEVILLE  FAIR      63  31  30 W10G18    30.12F
FLORA*         FAIR      65  31  28 W10       30.12S
FAIRFIELD*     FAIR      64  33  30 SW12      30.11F
HARRISBURG*    FAIR      64  27  24 SW3       30.14F
ROBINSON*      FAIR      62  31  31 W7G18     30.12F
CARMI*         FAIR      64  21  19 CALM      30.13F
$$

ABBREVIATIONS USED IN REMARKS
   TC - TEMPERATURE IN CELSIUS
  WCI - WIND CHILL INDEX
   HX - HEAT INDEX
  VSB - VISIBILITY
$$




USA.gov is the U.S. government's official web portal to all federal, state and local government web resources and services.